Location: Degersen
(52.2871°N, 9.5716°E)
Time: 07:24:20
(UTC+00:00)

Cosmos 2297 Rocket - Pass Details

Date: 20 January 2026
Orbit: 838 x 843 km, 71.0° (Epoch: 18 February)

Event Time Altitude Azimuth Distance (km) Brightness Sun altitude
Exits shadow 05:43:10 - 335° (NNW) 2,858 4.6 -14.2°
Reaches altitude 10° 05:44:30 10° 344° (NNW) 2,476 4.3 -14.0°
Maximum altitude 05:48:44 21° 32° (NNE) 1,817 4.1 -13.4°
Drops below altitude 10° 05:52:58 10° 81° (E) 2,468 5.7 -12.8°
Sets 05:56:02 0° 97° (E) 3,399 7.2 -12.3°
